User: anonymous   Login
Location: Unspecified
(0.0000°N, 0.0000°E)
Time: 13:17:23
(UTC+00:00)
Language:

URSA MAIOR - Orbit

View from above orbital plane
View from above orbital plane
View from above satellite
View from above satellite

Ground track
Ground track

The orbit data is extracted from the following two-line orbital elements,

1 42776U 17036M   18348.14997551  .00000741  00000-0  36278-4 0  9990
2 42776  97.3784  44.1538 0014825 148.9802 211.2312 15.21144521 81853
Epoch (UTC): 14 December 2018 03:35:57
Eccentricity: 0.0014825
inclination: 97.3784°
perigee height: 492 km
apogee height: 512 km
right ascension of ascending node: 44.1538°
argument of perigee: 148.9802°
revolutions per day: 15.21144521
mean anomaly at epoch: 211.2312°
orbit number at epoch: 8185

The dashed part of the orbit path shows where the satellite is in the earth's shadow,  

DLR